Weather in Kremenkul'

Russia / Chelyabinsk Oblast     55°11′11″N   61°09′08″E
temp.,
°C
wind,
m/s
gust,
m/s
humid.,
%
clouds,
%
prec.,
mm/h
press.,
hPa
HPBL,
m
28 july, wed
wed2823:00+14w36835 0.3 1011136
02:00+13nw3680100 0.0 1011185
05:00+12n267162 0.0 1011195
08:00+13n2362100 0.0 1011247
11:00+16nw475389 0.0 10111564
14:00+15nnw574984 0.0 10111513
17:00+16nw474432 0.0 10111725
20:00+15nnw58515 0.0 10121272
29 july, thu
thu2923:00+11wnw24645 0.0 1013134
02:00+10wsw3468100 0.0 1013106
05:00+9w36695 0.0 1013165
08:00+13wnw36595 0.0 1013407
11:00+18wnw58436 0.0 10111820
14:00+22wnw68335 0.0 10102530
17:00+22wnw593274 0.0 10092610
20:00+20wsw484475 0.0 1009582
30 july, fri
fri3023:00+16wsw48545 0.0 1009168
02:00+15sw4954100 0.0 1008180
05:00+15sw41150100 0.0 1008239
08:00+17wsw61267100 0.0 1008737
11:00+16ssw71072100 0.0 1006749
14:00+16sw51079100 0.4 1005706
17:00+18wsw377254 0.4 1004690
20:00+17nw2685100 0.2 1005344
31 july, sat
sat3123:00+16w289219 0.3 1006469
02:00+14w229586 0.0 100747
05:00+14sw2294100 0.0 100749
08:00+18wsw367653 0.0 1008269
11:00+23w466598 0.9 1008754
14:00+26w3745100 1.2 10071919
17:00+19nnw3684100 1.9 1009199
20:00+19s378382 0.2 1008247
1 august, sun
sun123:00+18ssw41187100 0.6 1008318
02:00+18ssw41193100 0.7 1006283
05:00+17wsw3792100 0.9 1006135
08:00+19wsw3886100 0.3 1007387
11:00+23nw67633 0.3 10071134
14:00+26nw58409 0.0 10082045
17:00+26wnw6842100 0.0 10082328
20:00+22wnw395768 0.0 1010667